CDT,Max TemperatureF,Mean TemperatureF,Min TemperatureF,Max Dew PointF,MeanDew PointF,Min DewpointF,Max Humidity, Mean Humidity, Min Humidity, Max Sea Level PressureIn, Mean Sea Level PressureIn, Min Sea Level PressureIn, Max VisibilityMiles, Mean VisibilityMiles, Min VisibilityMiles, Max Wind SpeedMPH, Mean Wind SpeedMPH, Max Gust SpeedMPH,PrecipitationIn, CloudCover, Events, WindDirDegrees
2011-10-1,71,60,48,45,41,36,82,54,29,30.26,30.19,30.12,10,10,10,17,9,22,0.00,0,,8
2011-10-2,71,56,42,45,39,36,82,58,27,30.31,30.25,30.20,10,10,10,12,6,17,0.00,0,,4
2011-10-3,78,61,44,48,39,32,82,57,20,30.32,30.24,30.20,10,10,7,8,2,,0.02,0,,38
2011-10-4,80,63,46,50,44,39,87,60,26,30.32,30.24,30.19,10,10,9,9,2,,0.00,0,,77
2011-10-5,82,66,50,52,47,43,82,59,28,30.25,30.19,30.12,10,10,2,12,3,16,0.00,0,,91
2011-10-6,84,70,55,54,50,39,82,52,20,30.20,30.15,30.11,10,10,10,16,7,24,0.00,0,,122
2011-10-7,86,72,57,57,53,48,88,59,29,30.26,30.20,30.16,10,10,10,16,8,24,0.00,0,,128
2011-10-8,84,72,59,57,55,52,82,61,33,30.25,30.19,30.13,10,10,6,17,9,23,0.00,0,,119
2011-10-9,82,72,62,55,54,41,77,61,28,30.21,30.15,30.06,10,10,10,18,9,23,0.00,1,,101
2011-10-10,82,70,57,59,56,54,88,69,42,30.11,30.05,29.98,10,10,5,10,6,,0.00,2,,91
2011-10-11,82,71,60,61,57,55,88,74,42,29.99,29.93,29.85,10,10,7,9,3,,0.00,2,,84
2011-10-12,75,67,59,63,58,55,94,82,61,29.89,29.81,29.72,10,9,0,38,7,45,0.54,3,Thunderstorm,151
2011-10-13,78,68,57,57,54,43,94,78,31,29.85,29.77,29.70,10,9,5,22,10,30,0.01,2,Thunderstorm,293
2011-10-14,84,67,50,48,44,39,77,63,23,29.99,29.93,29.87,10,10,10,12,7,,0.00,0,,249
2011-10-15,77,64,51,48,43,36,77,53,25,30.17,30.09,30.00,10,10,10,13,6,,0.00,0,,75
2011-10-16,89,72,55,55,48,43,72,55,37,30.09,30.02,29.93,10,10,10,18,9,24,0.00,0,,192
2011-10-17,89,72,55,57,51,46,77,59,27,29.95,29.86,29.73,10,10,10,18,8,23,0.00,0,,182
2011-10-18,69,58,48,57,46,41,87,78,60,29.90,29.81,29.68,10,10,5,26,13,32,0.67,7,Thunderstorm,337
2011-10-19,53,48,42,43,35,34,82,63,47,29.98,29.89,29.84,10,10,10,24,12,30,0.00,4,,310
2011-10-20,62,48,35,36,32,27,81,57,26,30.09,30.03,29.98,10,10,9,16,9,21,0.00,0,,271
2011-10-21,69,52,35,39,34,30,81,61,31,30.27,30.19,30.14,10,10,5,9,5,,0.00,0,,274
2011-10-22,75,58,42,48,42,37,81,64,37,30.19,30.11,30.03,10,10,10,12,5,16,0.00,0,,150
2011-10-23,59,55,51,54,50,45,88,82,67,30.13,30.04,29.97,10,8,0,15,7,24,0.81,6,Thunderstorm,52
2011-10-24,71,58,46,55,48,43,93,85,68,30.26,30.19,30.13,10,5,0,8,3,,0.00,5,,195
2011-10-25,80,64,48,50,47,43,87,69,30,30.21,30.12,29.99,10,10,5,20,7,21,0.00,0,,165
2011-10-26,82,70,59,59,50,45,72,64,49,30.01,29.94,29.85,10,10,5,17,11,21,0.00,3,,188
2011-10-27,68,59,50,57,47,43,88,76,64,30.06,29.98,29.85,10,9,2,20,13,25,0.01,7,,17
2011-10-28,57,52,46,43,40,34,87,71,41,30.19,30.13,30.04,10,10,4,21,15,28,0.46,6,,8
2011-10-29,64,50,37,37,35,30,87,70,31,30.28,30.20,30.14,10,10,9,10,5,20,0.00,0,,313
2011-10-30,64,52,39,37,35,27,81,63,27,30.25,30.18,30.13,10,10,8,16,6,22,0.00,0,,172
2011-10-31,69,54,39,41,34,27,81,53,20,30.24,30.19,30.17,10,10,10,9,6,,0.00,0,,205